sat.trackr.live / text

‹ back to catalog

STARLINK-11156 [DTC]

NORAD 61056 · 2024-164G

PAYLOAD ACTIVE UNKNOWN

§ Identity

Operator
Country
US
Launch date
2024-09-13
Launch site
AFWTR
Launch vehicle
Mass (kg)
RCS (m²)

Purposes: comms

External: N2YO · Heavens-Above · Gunter

§ Orbital elements

Epoch: 2026-05-25T03:07:49.063008Z

Period
91.79 min
Inclination
53.1595°
Eccentricity
0.0000719
Mean motion
15.68837027 rev/d
Perigee alt
361.7 km
Apogee alt
362.7 km
Semi-major
6,740.4 km
B*
1.0965e-5
RAAN
293.7875°
Arg perigee
63.0254°
Mean anomaly
297.0837°
Rev number
9,743

§ Raw data

STARLINK-11156 [DTC]1 61056U 24164G   26145.13042897  .00000701  00000+0  10965-4 0  99992 61056  53.1595 293.7875 0000719  63.0254 297.0837 15.68837027 97432

JSON: /api/v1/satellites/61056 · /tle

For live sub-satellite position, see the globe view (requires WebGL).

§ Visibility from observer

Set your observer location to see the next 7 days of passes ≥ 10°. The values pass through the URL so the page stays shareable.

No JS? Fill the form by hand. The geolocation button needs JavaScript.